When you browse on this site, cookies collect data to enhance your experience and personalize the content and advertising you see.
Visit our Privacy Policy to learn more. By continuing to use the site, you agree to this use of cookies and data.

Hourly Weather Mohsogolloh

Today, 4 July, Saturday

Time Temperature Precipitation Wind Pressure Humidity
00:00 +13°C° 0 mm 3 mps 740 mmHg 77%
01:00 +13°C° 0 mm 3 mps 740 mmHg 79%
02:00 +12°C° 0 mm 3 mps 739 mmHg 80%
03:00 +12°C° 0 mm 3 mps 740 mmHg 82%
04:00 +12°C° 0 mm 3 mps 740 mmHg 81%
05:00 +13°C° 0 mm 3 mps 739 mmHg 79%
06:00 +13°C° 0 mm 3 mps 739 mmHg 78%
07:00 +16°C° 0 mm 3 mps 739 mmHg 70%
08:00 +18°C° 0 mm 4 mps 739 mmHg 62%
09:00 +19°C° 0 mm 4 mps 739 mmHg 56%
10:00 +19°C° 0.3 mm 3 mps 739 mmHg 59%
11:00 +19°C° 0.3 mm 3 mps 738 mmHg 63%
12:00 +19°C° 0.3 mm 3 mps 738 mmHg 66%
13:00 +19°C° 0.6 mm 3 mps 737 mmHg 66%
14:00 +20°C° 0.6 mm 3 mps 737 mmHg 66%
15:00 +20°C° 0.6 mm 3 mps 737 mmHg 65%
16:00 +20°C° 0.5 mm 2 mps 737 mmHg 67%
17:00 +20°C° 0.5 mm 2 mps 737 mmHg 68%
18:00 +20°C° 0.5 mm 2 mps 737 mmHg 69%
19:00 +18°C° 0.1 mm 2 mps 737 mmHg 73%
20:00 +17°C° 0.1 mm 2 mps 737 mmHg 77%
21:00 +16°C° 0.1 mm 2 mps 737 mmHg 80%
22:00 +15°C° 0 mm 2 mps 737 mmHg 80%
23:00 +15°C° 0 mm 2 mps 738 mmHg 80%

Tomorrow, 5 July, Sunday

Time Temperature Precipitation Wind Pressure Humidity
00:00 +15°C° 0 mm 2 mps 738 mmHg 80%
01:00 +14°C° 0 mm 1 mps 738 mmHg 80%
02:00 +14°C° 0 mm 1 mps 738 mmHg 80%
03:00 +14°C° 0 mm 1 mps 738 mmHg 80%
04:00 +14°C° 0 mm 1 mps 738 mmHg 77%
05:00 +14°C° 0 mm 1 mps 739 mmHg 75%
06:00 +15°C° 0 mm 1 mps 739 mmHg 72%
07:00 +16°C° 0 mm 1 mps 739 mmHg 67%
08:00 +17°C° 0 mm 2 mps 739 mmHg 61%
09:00 +18°C° 0 mm 2 mps 739 mmHg 55%
10:00 +19°C° 0.2 mm 2 mps 739 mmHg 52%
11:00 +20°C° 0.2 mm 2 mps 739 mmHg 49%
12:00 +23°C° 0.2 mm 2 mps 739 mmHg 46%
13:00 +21°C° 0.1 mm 2 mps 739 mmHg 46%
14:00 +21°C° 0.1 mm 2 mps 739 mmHg 46%
15:00 +20°C° 0.1 mm 2 mps 739 mmHg 47%
16:00 +20°C° 0 mm 2 mps 739 mmHg 45%
17:00 +20°C° 0 mm 2 mps 740 mmHg 44%
18:00 +20°C° 0 mm 2 mps 740 mmHg 43%
19:00 +19°C° 0 mm 2 mps 740 mmHg 47%
20:00 +18°C° 0 mm 2 mps 741 mmHg 50%
21:00 +18°C° 0 mm 1 mps 741 mmHg 53%
22:00 +16°C° 0 mm 1 mps 741 mmHg 55%
23:00 +15°C° 0 mm 1 mps 742 mmHg 56%

Day after tomorrow, 6 July, Monday

Time Temperature Precipitation Wind Pressure Humidity
00:00 +14°C° 0 mm 1 mps 742 mmHg 58%
01:00 +13°C° 0 mm 1 mps 742 mmHg 61%
02:00 +13°C° 0 mm 1 mps 743 mmHg 63%
03:00 +12°C° 0 mm 1 mps 743 mmHg 66%
04:00 +13°C° 0 mm 1 mps 743 mmHg 65%
05:00 +14°C° 0 mm 1 mps 744 mmHg 64%
06:00 +14°C° 0 mm 1 mps 744 mmHg 63%
07:00 +16°C° 0 mm 1 mps 744 mmHg 58%
08:00 +18°C° 0 mm 1 mps 744 mmHg 53%
09:00 +20°C° 0 mm 1 mps 744 mmHg 48%
10:00 +21°C° 0 mm 1 mps 744 mmHg 45%
11:00 +22°C° 0 mm 1 mps 744 mmHg 41%
12:00 +23°C° 0 mm 1 mps 744 mmHg 38%
13:00 +21°C° 0 mm 0 mps 744 mmHg 38%
14:00 +21°C° 0 mm 0 mps 744 mmHg 38%
15:00 +22°C° 0 mm 0 mps 744 mmHg 37%
16:00 +21°C° 0 mm 0 mps 744 mmHg 41%
17:00 +20°C° 0 mm 0 mps 744 mmHg 45%
18:00 +19°C° 0 mm 0 mps 744 mmHg 49%
19:00 +18°C° 0 mm 0 mps 745 mmHg 51%
20:00 +17°C° 0 mm 0 mps 745 mmHg 54%
21:00 +16°C° 0 mm 0 mps 745 mmHg 57%
22:00 +15°C° 0 mm 0 mps 745 mmHg 58%
23:00 +14°C° 0 mm 0 mps 745 mmHg 60%

7 July, Tuesday

Time Temperature Precipitation Wind Pressure Humidity
00:00 +14°C° 0 mm 1 mps 745 mmHg 61%
01:00 +14°C° 0 mm 1 mps 746 mmHg 63%
02:00 +12°C° 0 mm 0 mps 746 mmHg 65%
03:00 +12°C° 0 mm 0 mps 746 mmHg 68%
04:00 +12°C° 0 mm 0 mps 746 mmHg 66%
05:00 +13°C° 0 mm 0 mps 746 mmHg 65%
06:00 +14°C° 0 mm 0 mps 746 mmHg 64%
07:00 +16°C° 0 mm 0 mps 746 mmHg 59%
08:00 +17°C° 0 mm 0 mps 746 mmHg 54%
09:00 +19°C° 0 mm 0 mps 746 mmHg 49%
10:00 +20°C° 0 mm 0 mps 746 mmHg 45%
11:00 +22°C° 0 mm 0 mps 746 mmHg 41%
12:00 +23°C° 0 mm 0 mps 745 mmHg 37%
13:00 +23°C° 0 mm 0 mps 745 mmHg 38%
14:00 +22°C° 0 mm 0 mps 745 mmHg 39%
15:00 +22°C° 0 mm 0 mps 745 mmHg 40%
16:00 +24°C° 0 mm 1 mps 745 mmHg 42%
17:00 +23°C° 0 mm 1 mps 745 mmHg 45%
18:00 +22°C° 0 mm 1 mps 745 mmHg 47%
19:00 +21°C° 0 mm 1 mps 746 mmHg 51%
20:00 +20°C° 0 mm 1 mps 746 mmHg 56%
21:00 +16°C° 0 mm 0 mps 746 mmHg 60%
22:00 +15°C° 0 mm 0 mps 746 mmHg 64%
23:00 +13°C° 0 mm 0 mps 746 mmHg 68%

8 July, Wednesday

Time Temperature Precipitation Wind Pressure Humidity
00:00 +12°C° 0 mm 0 mps 745 mmHg 72%
01:00 +11°C° 0 mm 0 mps 745 mmHg 74%
02:00 +11°C° 0 mm 0 mps 745 mmHg 75%
03:00 +10°C° 0 mm 0 mps 745 mmHg 77%
04:00 +12°C° 0 mm 0 mps 745 mmHg 73%
05:00 +13°C° 0 mm 0 mps 745 mmHg 70%
06:00 +14°C° 0 mm 0 mps 745 mmHg 66%
07:00 +16°C° 0 mm 1 mps 745 mmHg 65%
08:00 +18°C° 0 mm 1 mps 745 mmHg 63%
09:00 +19°C° 0 mm 1 mps 745 mmHg 61%
10:00 +21°C° 0 mm 1 mps 744 mmHg 55%
11:00 +23°C° 0 mm 2 mps 744 mmHg 48%
12:00 +25°C° 0 mm 2 mps 744 mmHg 42%
13:00 +26°C° 0 mm 2 mps 743 mmHg 42%
14:00 +26°C° 0 mm 2 mps 743 mmHg 42%
15:00 +26°C° 0 mm 2 mps 743 mmHg 41%
16:00 +26°C° 0 mm 2 mps 742 mmHg 46%
17:00 +25°C° 0 mm 2 mps 742 mmHg 51%
18:00 +24°C° 0 mm 2 mps 742 mmHg 56%
19:00 +23°C° 0 mm 2 mps 742 mmHg 60%
20:00 +21°C° 0 mm 2 mps 742 mmHg 64%
21:00 +20°C° 0 mm 2 mps 742 mmHg 69%
22:00 +19°C° 0 mm 2 mps 742 mmHg 70%
23:00 +19°C° 0 mm 2 mps 742 mmHg 72%

9 July, Thursday

Time Temperature Precipitation Wind Pressure Humidity
00:00 +19°C° 0 mm 1 mps 742 mmHg 74%
01:00 +19°C° 0 mm 1 mps 742 mmHg 75%
02:00 +18°C° 0 mm 1 mps 742 mmHg 77%
03:00 +18°C° 0 mm 1 mps 742 mmHg 78%
04:00 +18°C° 0 mm 1 mps 742 mmHg 80%
05:00 +18°C° 0 mm 1 mps 742 mmHg 81%
06:00 +18°C° 0 mm 1 mps 742 mmHg 83%
07:00 +21°C° 0 mm 1 mps 743 mmHg 74%
08:00 +23°C° 0 mm 1 mps 743 mmHg 65%
09:00 +23°C° 0 mm 0 mps 743 mmHg 57%
10:00 +25°C° 0 mm 0 mps 743 mmHg 53%
11:00 +26°C° 0 mm 0 mps 743 mmHg 48%
12:00 +28°C° 0 mm 0 mps 743 mmHg 44%
13:00 +27°C° 0 mm 0 mps 743 mmHg 46%
14:00 +28°C° 0 mm 1 mps 743 mmHg 47%
15:00 +28°C° 0 mm 1 mps 742 mmHg 49%
16:00 +28°C° 0 mm 1 mps 742 mmHg 50%
17:00 +28°C° 0 mm 1 mps 742 mmHg 52%
18:00 +27°C° 0 mm 1 mps 742 mmHg 53%
19:00 +26°C° 0.1 mm 1 mps 743 mmHg 60%
20:00 +24°C° 0.1 mm 1 mps 743 mmHg 67%
21:00 +23°C° 0.1 mm 1 mps 743 mmHg 74%
22:00 +21°C° 0.8 mm 1 mps 743 mmHg 81%
23:00 +20°C° 0.8 mm 1 mps 743 mmHg 87%
Show more